Date,TemperatureHighF,TemperatureAvgF,TemperatureLowF,DewpointHighF,DewpointAvgF,DewpointLowF,HumidityHigh,HumidityAvg,HumidityLow,PressureMaxIn,PressureMinIn,WindSpeedMaxMPH,WindSpeedAvgMPH,GustSpeedMaxMPH,PrecipitationSumIn
2012-1-1,56,48,43,23,12,-3,45,25,9,30.19,30.01,21,13,27,0.00
2012-1-2,54,50,45,48,39,1,94,73,11,30.31,29.96,33,14,67,0.12
2012-1-3,55,51,49,50,42,24,95,75,30,30.35,30.21,14,7,30,0.02
2012-1-4,55,52,48,50,40,15,98,72,20,30.37,30.20,25,14,47,0.56
2012-1-5,49,45,37,47,39,30,98,81,55,30.51,30.37,16,7,23,0.14
2012-1-6,45,40,37,40,34,29,90,79,67,30.40,30.30,11,5,19,0.08
2012-1-7,50,43,40,45,39,33,91,84,72,30.46,30.34,12,4,16,0.03
2012-1-8,49,44,40,33,31,25,73,60,42,30.42,30.26,13,8,18,0.01
2012-1-9,50,45,40,43,36,28,90,74,60,30.35,30.24,17,6,26,0.12
2012-1-10,45,41,33,40,30,19,90,65,36,30.49,30.35,14,7,23,0.10
2012-1-11,48,40,33,28,0,-40,73,34,2,30.40,30.22,17,7,24,0.00
2012-1-12,51,44,37,5,-20,-40,18,6,2,30.26,30.21,15,6,24,0.00
2012-1-13,52,45,38,15,-4,-23,28,14,5,30.25,30.11,15,4,22,0.00
2012-1-14,47,43,37,40,31,15,85,63,27,30.16,30.06,25,14,37,0.14
2012-1-15,42,36,32,34,27,22,83,71,53,30.15,30.03,22,6,35,0.20
2012-1-16,40,35,31,40,33,27,100,91,82,30.24,30.15,22,6,38,0.24
2012-1-17,44,41,38,43,41,37,100,98,96,30.16,29.98,33,17,59,0.62
2012-1-18,49,47,41,49,47,41,100,100,100,29.98,29.63,39,20,84,2.99
2012-1-19,50,49,48,50,49,48,100,100,100,29.84,29.49,30,16,58,2.90
2012-1-20,52,50,48,52,50,48,100,100,100,29.83,29.21,33,14,67,0.80
2012-1-21,48,44,41,48,42,31,100,93,65,30.02,29.31,30,16,45,0.37
2012-1-22,48,44,39,48,39,16,100,82,31,29.95,29.56,30,13,64,0.70
2012-1-23,47,40,36,39,33,27,95,76,47,30.13,29.92,12,4,15,0.01
2012-1-24,52,47,40,52,45,33,100,94,70,30.23,29.93,30,16,64,1.46
2012-1-25,51,50,48,51,50,48,100,100,96,30.45,30.21,20,10,38,0.15
2012-1-26,51,44,36,51,33,21,100,68,39,30.68,30.20,23,11,30,0.17
2012-1-27,45,39,34,27,18,8,69,45,28,30.68,30.53,13,8,17,0.02
2012-1-28,53,45,38,18,2,-13,34,19,6,30.53,30.27,14,5,17,0.00
2012-1-29,54,49,46,49,29,-26,100,68,3,30.27,29.99,27,12,46,1.68
2012-1-30,47,45,44,47,45,44,100,100,100,30.22,30.14,15,5,22,0.76
2012-1-31,50,46,44,49,46,44,100,100,96,30.19,29.97,9,4,16,0.11
2012-2-1,49,46,42,49,46,42,100,99,95,30.51,29.96,22,8,30,0.22
2012-2-2,55,48,41,43,15,-34,100,51,2,30.51,30.12,20,11,32,0.06
2012-2-3,59,51,44,26,-20,-46,43,10,1,30.19,30.05,20,10,31,0.00
2012-2-4,61,50,42,22,-11,-41,40,11,1,30.19,30.12,17,8,22,0.00
2012-2-5,57,49,45,-5,-53,-100,12,4,4,30.24,30.07,17,10,20,0.00
2012-2-6,61,54,49,-100,-100,-100,0,0,100,30.07,29.78,21,12,30,0.00
2012-2-7,58,52,48,-100,-100,-100,0,0,100,30.06,29.78,15,6,22,0.06
2012-2-8,54,52,50,-100,-100,-100,0,0,100,30.32,30.07,15,7,28,0.75
2012-2-9,61,56,52,-100,-100,-100,0,0,100,30.32,30.07,14,7,28,0.23
2012-2-10,56,52,49,-100,-100,-100,0,0,100,30.21,30.01,18,9,39,0.07
2012-2-11,53,47,41,-100,-100,-100,0,0,100,30.32,30.21,12,4,16,0.01
2012-2-12,51,43,39,-100,-100,-100,0,0,100,30.24,29.99,8,3,14,0.28
2012-2-13,51,46,41,-100,-100,-100,0,0,100,30.20,30.01,14,4,17,0.17
2012-2-14,49,44,39,-100,-100,-100,0,0,100,30.31,30.09,27,8,42,0.27
2012-2-15,52,44,36,-100,-100,-100,0,0,100,30.45,30.30,11,5,14,0.08
2012-2-16,49,45,41,-100,-100,-100,0,0,100,30.40,30.31,10,5,18,0.09
2012-2-17,51,49,47,-100,-100,-100,0,0,100,30.32,30.11,25,11,40,0.29
2012-2-18,50,47,40,-100,-100,-100,0,0,100,30.31,30.23,27,17,51,0.09
2012-2-19,52,44,38,-100,-100,-100,0,0,100,30.29,29.96,16,7,25,0.14
2012-2-20,50,48,42,-100,-100,-100,0,0,100,30.25,29.91,18,11,30,0.66
2012-2-21,50,50,49,-100,-100,-100,0,0,100,30.43,30.25,17,11,30,0.93
2012-3-3,49,47,45,49,47,44,100,100,100,30.53,30.48,8,3,10,0.10
2012-3-4,53,47,41,53,47,41,100,100,94,30.48,30.18,15,7,21,0.01
2012-3-5,46,44,40,46,43,34,100,98,75,30.18,29.96,23,12,45,0.58
2012-3-6,44,40,35,43,34,26,100,81,52,30.45,30.14,32,11,49,0.11
2012-3-7,47,40,31,40,33,-100,100,78,58,30.54,30.35,14,-1,22,0.03
2012-3-8,64,48,42,51,37,24,100,70,24,30.40,30.24,24,9,34,0.00
2012-3-9,52,47,45,49,46,44,100,96,76,30.40,30.14,21,10,31,0.05
2012-3-10,47,45,44,47,45,43,100,100,100,30.14,29.79,21,10,44,0.82
2012-3-11,45,42,39,45,42,38,100,98,80,29.93,29.74,32,12,42,0.99
2012-3-12,47,40,33,47,40,33,100,99,84,29.78,29.38,38,14,77,1.08
2012-3-13,43,37,33,43,37,33,100,100,96,29.95,29.54,33,10,55,1.66
2012-3-14,48,44,39,48,44,39,100,100,100,29.91,29.78,27,15,53,1.15
2012-3-15,51,49,46,51,49,46,100,100,100,29.83,29.66,36,21,74,1.28
2012-3-16,51,45,41,51,45,41,100,100,100,29.84,29.45,24,8,40,0.42
2012-3-17,49,43,38,49,43,38,100,100,100,29.77,29.46,22,8,31,0.49
2012-3-18,45,39,35,45,39,35,100,100,94,29.97,29.74,25,7,38,0.62
2012-3-19,44,40,35,44,40,35,100,100,100,29.97,29.80,13,8,33,0.17
2012-3-20,47,44,39,47,43,-100,100,100,100,30.13,29.79,29,16,61,0.58
2012-3-21,41,37,34,40,37,34,100,100,93,30.12,29.92,18,6,29,0.32
2012-3-22,47,40,34,47,39,-100,100,99,100,30.11,29.96,12,-1,21,0.35
2012-3-23,55,46,37,44,36,25,100,73,34,30.03,29.88,25,10,44,0.03
2012-3-24,55,48,44,49,39,29,100,73,42,30.04,29.86,21,10,33,0.00
2012-3-25,50,44,41,50,44,41,100,100,100,29.98,29.83,18,4,24,0.32
2012-3-26,53,45,38,50,44,38,100,95,62,29.92,29.74,15,8,31,0.18
2012-3-27,54,48,44,54,48,44,100,100,92,29.75,29.58,19,11,46,0.51
2012-3-28,50,46,42,50,46,42,100,100,97,29.92,29.68,26,14,54,0.81
2012-3-29,51,49,46,51,49,46,100,100,100,29.79,29.56,36,21,69,1.58
2012-3-30,50,46,39,50,46,39,100,100,100,29.91,29.61,25,12,48,0.84
2012-3-31,53,46,40,51,45,40,100,99,83,29.79,29.35,28,13,49,1.22
2012-4-1,50,45,41,50,45,41,100,99,90,30.33,29.80,31,15,41,0.67
2012-4-2,59,50,44,49,44,38,100,81,49,30.33,30.01,20,9,31,0.03
2012-4-3,51,46,40,50,44,39,100,93,64,30.09,29.89,21,10,34,0.86
2012-4-4,45,41,38,45,41,38,100,100,100,30.25,30.06,21,7,27,0.85
2012-4-5,52,42,36,49,41,36,100,95,65,30.30,30.24,12,5,20,0.34
2012-4-6,52,42,36,49,41,36,100,94,68,30.39,30.30,14,7,20,0.22
2012-4-7,59,49,40,48,39,34,100,70,41,30.32,30.12,13,7,18,0.02
2012-4-8,65,54,48,53,43,34,100,69,34,30.16,30.09,13,5,19,0.00
2012-4-9,59,52,48,56,51,47,100,96,68,30.11,29.90,10,5,16,0.00
2012-4-10,56,50,46,56,50,46,100,100,100,29.95,29.80,19,6,23,0.02
2012-4-11,55,50,46,55,49,46,100,100,94,29.91,29.80,18,6,29,0.14
2012-4-12,52,47,43,52,47,43,100,98,90,29.88,29.72,21,10,39,0.37
2012-4-13,53,47,43,53,47,43,100,100,100,30.04,29.85,12,4,16,0.15
2012-4-14,58,50,45,52,47,-100,100,93,71,30.32,30.04,14,6,20,0.01
2012-4-15,55,47,41,53,47,41,100,99,82,30.33,30.13,16,5,30,0.31
2012-4-16,57,50,43,57,50,42,100,100,100,30.35,30.06,22,10,49,1.05
2012-4-17,49,44,39,49,44,39,100,100,100,30.35,30.06,12,6,28,0.31
2012-4-18,57,50,45,55,49,45,100,98,88,30.19,30.04,15,7,35,0.43
2012-4-19,53,49,44,53,49,44,100,100,100,30.23,30.09,17,8,35,0.81
2012-4-20,57,51,48,57,51,48,100,100,100,30.32,30.22,13,6,28,0.44
2012-4-21,64,56,47,63,54,47,100,96,75,30.23,30.06,14,6,21,0.01
2012-4-22,63,55,49,61,54,49,100,96,68,30.09,29.96,20,8,31,0.00
2012-4-23,58,52,49,58,52,49,100,100,100,30.03,29.93,22,9,33,0.00
2012-4-24,58,52,49,58,52,49,100,100,100,30.07,29.96,19,7,34,0.08
2012-4-25,53,52,49,53,52,48,100,100,100,29.97,29.74,21,11,35,1.00
2012-4-26,53,48,45,52,48,45,100,99,91,30.22,29.75,27,12,37,0.61
2012-4-27,54,49,44,53,48,44,100,99,88,30.40,30.22,19,9,26,0.28
2012-4-28,61,52,47,60,51,-100,100,99,92,30.37,30.30,11,5,14,0.04
2012-4-29,59,52,48,59,52,48,100,100,100,30.30,29.97,15,7,20,0.09
2012-4-30,52,49,45,52,49,45,100,100,100,30.16,29.91,21,14,37,0.62
2012-5-1,52,46,43,51,46,43,100,100,88,30.16,30.08,16,9,29,0.18
2012-5-2,52,46,41,52,46,41,100,100,95,30.11,29.75,12,5,19,0.45
2012-5-3,52,48,46,51,48,-46,100,99,1,30.12,29.56,29,14,46,1.45
2012-5-4,58,48,43,54,46,42,100,93,74,30.53,30.13,14,8,23,0.27
2012-5-5,58,48,42,52,45,-100,100,93,66,30.61,30.53,14,6,20,0.03
2012-5-6,58,50,41,56,50,41,100,98,88,30.57,30.39,23,10,34,0.06
2012-5-7,64,54,45,60,53,45,100,98,83,30.40,30.24,17,6,22,0.06
2012-5-8,59,52,48,59,52,45,100,100,92,30.30,30.25,25,12,38,0.00
2012-5-9,56,50,45,47,42,35,93,76,55,30.47,30.29,22,13,33,0.00
2012-5-10,55,48,41,45,41,37,99,79,60,30.52,30.35,26,12,39,0.00
2012-5-11,60,50,40,50,45,40,100,85,60,30.35,30.17,24,10,35,0.00
2012-5-12,67,56,47,52,43,-100,100,70,19,30.22,30.17,20,4,28,0.00
2012-5-13,63,54,46,57,51,46,100,93,62,30.22,30.05,25,9,39,0.00
2012-5-14,54,52,48,54,52,48,100,100,100,30.23,30.06,19,8,25,0.00
2012-5-15,60,54,50,59,53,50,100,97,86,30.24,30.16,18,8,30,0.00
2012-5-16,57,52,48,55,51,48,100,96,80,30.26,30.20,23,13,32,0.00
2012-5-17,60,51,45,51,47,45,100,87,63,30.25,30.19,16,8,22,0.00
2012-5-18,57,51,44,49,44,41,100,80,57,30.29,30.21,16,8,23,0.00
2012-5-19,59,50,41,52,46,-100,100,90,62,30.20,30.15,7,2,11,0.00
2012-5-20,56,52,49,56,52,44,100,98,76,30.17,30.08,13,3,20,0.22
2012-5-21,55,53,49,55,53,49,100,100,100,30.15,29.97,24,10,44,0.82
2012-5-22,56,51,49,56,51,49,100,100,100,30.24,30.03,25,13,52,0.43
2012-5-23,53,50,47,53,50,47,100,100,100,30.24,30.17,17,8,27,0.53
2012-5-24,57,50,48,57,50,48,100,100,100,30.17,29.97,21,7,30,0.49
2012-5-25,59,53,49,56,53,49,100,97,79,30.06,29.97,18,10,29,0.01
2012-5-26,58,54,52,55,53,51,100,95,81,30.19,30.05,11,5,14,0.00
2012-5-27,55,53,51,54,52,51,100,98,90,30.25,30.18,18,6,27,0.00
2012-5-28,62,54,49,52,46,37,100,76,42,30.29,30.22,13,7,18,0.00
2012-5-29,61,52,46,52,43,32,98,73,35,30.31,30.27,16,8,22,0.00
2012-5-30,63,55,48,53,49,44,100,81,54,30.36,30.30,9,3,12,0.00
2012-5-31,65,58,53,61,54,42,100,88,61,30.33,30.19,9,3,11,0.00
2012-6-1,61,57,55,61,57,55,100,100,100,30.20,30.06,13,4,22,0.15
2012-6-2,61,55,50,58,49,-100,100,85,51,30.18,30.06,14,7,19,0.27
2012-6-3,61,53,48,52,45,38,100,76,45,30.15,29.96,16,6,23,0.01
2012-6-4,55,51,48,55,51,48,100,100,94,30.09,29.86,29,9,44,0.32
2012-6-5,63,53,46,50,46,35,100,80,37,30.40,30.09,15,8,23,0.23
2012-6-6,59,52,46,54,46,40,100,82,51,30.39,30.13,18,9,21,0.06
2012-6-7,59,53,48,57,52,48,100,97,78,30.16,29.96,19,10,40,0.97
2012-6-8,52,49,47,52,49,47,100,99,90,30.22,30.11,19,7,30,0.65
2012-6-9,64,52,43,55,48,42,100,87,53,30.45,30.21,11,5,16,0.01
2012-6-10,63,54,46,54,47,43,100,81,52,30.45,30.33,18,6,24,0.00
2012-6-11,64,56,47,57,53,47,100,91,67,30.33,30.26,8,3,11,0.01
2012-6-12,58,55,52,58,55,52,100,100,100,30.29,30.19,15,6,20,0.23
2012-6-13,60,54,50,56,50,43,100,86,54,30.35,30.29,19,11,30,0.01
2012-6-14,60,53,47,49,46,42,97,78,53,30.29,30.25,17,9,24,0.00
2012-6-15,64,55,46,57,51,46,100,87,60,30.32,30.25,14,6,19,0.00
2012-6-16,68,59,53,64,57,-100,100,97,73,30.32,30.20,10,3,15,0.00
2012-6-17,61,57,53,59,57,53,100,99,87,30.23,30.16,15,9,20,0.10
2012-6-18,60,55,52,56,51,45,100,88,64,30.26,30.13,25,11,35,0.17
2012-6-19,64,55,51,57,51,44,100,88,52,30.31,30.24,14,6,20,0.16
2012-6-20,65,56,48,57,53,48,100,91,67,30.30,30.11,16,8,24,0.01
2012-6-21,64,58,54,56,53,48,100,86,61,30.13,30.00,14,6,20,0.00
2012-6-22,58,54,51,58,54,51,100,99,93,30.00,29.90,16,7,25,0.51
2012-6-23,62,54,50,55,50,43,100,89,57,30.07,29.91,15,7,21,0.45
2012-6-24,66,55,50,57,50,41,100,85,43,30.22,30.05,16,5,20,0.02
2012-6-25,65,55,51,59,53,48,100,93,57,30.18,30.11,10,4,13,0.08
2012-6-26,67,57,51,58,52,41,100,86,41,30.26,30.13,15,6,21,0.11
2012-6-27,67,58,48,57,51,46,100,80,50,30.22,30.08,15,7,21,0.01
2012-6-28,62,57,51,60,55,51,100,95,71,30.20,30.09,21,8,33,0.06
2012-6-29,63,60,57,63,59,57,100,99,91,30.23,30.17,16,7,23,0.08
2012-6-30,62,59,56,62,59,56,100,100,100,30.20,30.13,14,7,18,0.23
2012-7-1,64,58,55,59,54,48,100,88,61,30.24,30.16,16,8,23,0.04
2012-7-2,64,58,53,58,52,47,100,84,55,30.20,30.13,13,5,21,0.13
2012-7-3,64,57,52,56,51,41,100,82,44,30.35,30.13,23,11,32,0.27
2012-7-4,64,56,47,53,48,44,100,76,54,30.27,30.12,19,10,27,0.00
2012-7-5,64,57,50,57,53,50,100,88,63,30.21,30.13,17,8,24,0.00
2012-7-6,64,58,55,56,52,48,100,81,58,30.28,30.21,19,10,26,0.00
2012-7-7,64,58,52,58,55,52,100,91,71,30.27,30.19,22,10,32,0.00
2012-7-8,61,56,54,58,56,54,100,97,80,30.23,30.19,21,13,29,0.00
2012-7-9,64,57,53,55,53,50,100,88,64,30.31,30.21,21,13,30,0.00
2012-7-10,62,56,52,55,53,51,100,89,74,30.32,30.19,23,12,34,0.00
2012-7-11,61,56,52,60,55,52,100,98,87,30.22,30.14,24,12,36,0.00
2012-7-12,68,59,54,59,55,49,100,88,56,30.20,30.14,15,9,22,0.00
2012-7-13,66,60,56,57,54,52,97,82,62,30.22,30.14,17,10,24,0.00
2012-7-14,63,59,57,60,58,54,100,96,85,30.19,30.13,11,4,16,0.00
2012-7-15,62,58,56,61,58,56,100,99,92,30.22,30.10,13,6,23,0.08
2012-7-16,68,59,54,62,58,54,100,96,72,30.11,29.98,13,5,18,0.08
2012-7-17,63,59,57,63,59,57,100,100,96,30.17,29.99,11,5,16,0.08
2012-7-18,65,60,57,65,59,57,100,96,83,30.23,30.16,9,4,13,0.08
2012-7-19,68,61,57,61,59,56,100,93,71,30.22,30.12,16,6,22,0.03
2012-7-20,62,59,57,62,59,57,100,99,94,30.40,30.18,15,6,27,0.09
2012-7-21,69,61,57,62,58,52,100,89,59,30.38,30.28,16,6,23,0.02
2012-7-22,68,61,55,55,51,43,86,71,40,30.37,30.26,13,7,18,0.00
2012-7-23,67,59,53,56,52,48,99,79,58,30.41,30.28,24,11,36,0.00
2012-7-24,62,57,53,58,55,52,100,93,80,30.29,30.12,24,11,34,0.00
2012-7-25,63,57,53,59,56,53,100,98,80,30.16,30.11,17,9,26,0.00
2012-7-26,62,58,55,60,57,55,100,97,80,30.17,30.12,11,3,12,0.02
2012-7-27,68,59,55,65,57,55,100,94,70,30.28,30.16,11,4,12,0.03
2012-7-28,67,61,56,59,56,52,100,85,62,30.32,30.28,15,8,20,0.00
2012-7-29,66,61,58,59,56,52,98,86,66,30.34,30.30,15,9,23,0.00
2012-7-30,67,61,57,56,53,51,86,76,58,30.34,30.29,17,9,25,0.00
2012-7-31,63,58,54,55,51,47,92,78,62,30.33,30.29,22,11,33,0.00
2012-8-1,63,58,54,56,52,48,100,83,63,30.38,30.32,21,10,31,0.00
2012-8-2,64,58,51,60,55,50,100,92,75,30.34,30.22,21,9,31,0.00
2012-8-3,65,58,53,60,55,52,100,93,69,30.23,29.98,19,10,32,0.00
2012-8-4,80,63,54,60,49,18,100,68,10,30.06,29.95,16,4,23,0.00
2012-8-5,62,58,53,61,58,52,100,99,93,30.23,30.06,15,8,24,0.00
2012-8-6,62,59,57,59,57,53,100,94,74,30.32,30.22,18,7,25,0.00
2012-8-7,65,59,56,57,54,47,100,83,55,30.29,30.25,12,4,15,0.00
2012-8-8,71,61,57,58,54,50,94,77,53,30.38,30.28,15,6,20,0.00
2012-8-9,67,60,55,61,56,52,100,87,60,30.37,30.26,23,11,34,0.00
2012-8-10,65,59,56,55,53,50,95,80,60,30.29,30.20,21,11,30,0.00
2012-8-11,61,55,52,59,54,-100,100,99,90,30.20,30.04,25,11,41,0.00
2012-8-12,62,55,51,59,54,51,100,97,83,30.11,30.04,25,9,41,0.01
2012-8-13,59,55,53,57,54,52,100,96,85,30.16,30.09,24,13,38,0.01
2012-8-14,64,57,52,61,55,50,100,96,78,30.13,30.01,25,13,36,0.00
2012-8-15,65,56,51,59,54,51,100,93,67,30.02,29.94,14,5,19,0.00
2012-8-16,60,56,53,59,54,51,100,95,73,30.12,30.01,16,5,25,0.00
2012-8-17,59,55,52,57,54,52,100,98,88,30.18,30.11,12,5,18,0.00
2012-8-18,62,57,54,62,57,54,100,100,96,30.16,30.11,9,2,12,0.00
2012-8-19,63,58,55,59,57,55,100,96,85,30.22,30.16,8,2,10,0.00
2012-8-20,66,59,53,61,57,53,100,94,71,30.21,30.13,15,6,23,0.00
2012-8-21,67,60,55,62,57,52,100,89,68,30.22,30.14,18,7,27,0.00
2012-8-22,67,60,54,54,51,45,92,73,48,30.25,30.20,22,11,32,0.00
2012-8-23,66,59,55,55,47,38,92,67,42,30.30,30.22,20,9,27,0.00
2012-8-24,64,57,51,47,43,35,80,60,34,30.32,30.07,25,11,40,0.00
2012-8-25,62,54,49,55,52,46,100,92,74,30.07,29.96,15,4,17,0.00
2012-8-26,62,56,53,56,53,44,100,90,56,30.12,29.94,19,7,37,0.19
2012-8-27,63,56,52,62,55,52,100,96,80,30.23,30.12,15,5,20,0.11
2012-8-28,62,56,52,61,55,52,100,99,83,30.25,30.19,14,4,21,0.00
2012-8-29,65,59,56,61,58,55,100,96,74,30.30,30.21,15,5,22,0.00
2012-8-30,64,58,53,56,53,45,100,85,60,30.21,30.04,21,8,30,0.00
2012-8-31,64,57,52,53,47,40,85,68,52,30.17,30.06,18,10,26,0.00
2012-9-1,64,57,52,52,49,46,87,75,55,30.30,30.17,15,8,22,0.00
2012-9-2,64,57,51,52,49,44,91,75,58,30.32,30.24,20,7,26,0.00
2012-9-3,61,57,53,58,54,51,100,91,77,30.27,30.21,24,11,37,0.00
2012-9-4,61,54,51,58,54,51,100,98,84,30.28,30.18,24,12,37,0.00
2012-9-5,57,53,50,57,53,50,100,100,100,30.19,30.06,21,8,33,0.01
2012-9-6,58,55,53,58,55,53,100,100,96,30.14,30.07,11,4,18,0.01
2012-9-7,58,54,51,58,54,51,100,100,100,30.22,30.14,12,3,15,0.00
2012-9-8,57,56,54,57,55,52,100,99,93,30.21,30.18,13,5,17,0.03
2012-9-9,58,56,54,58,56,53,100,98,88,30.23,30.15,9,4,17,0.05
2012-9-10,65,58,53,59,51,41,100,80,45,30.36,30.22,16,8,26,0.09
2012-9-11,62,54,48,46,42,37,77,63,46,30.38,30.29,27,10,39,0.01
2012-9-12,73,59,50,48,30,-23,83,47,2,30.31,30.19,15,6,25,0.00
2012-9-13,71,63,49,47,3,-36,92,23,1,30.27,30.19,10,6,14,0.00
2012-9-14,54,50,46,54,50,46,100,99,91,30.27,30.20,10,2,13,0.00
2012-9-15,61,55,52,57,52,42,100,89,55,30.30,30.24,23,8,33,0.00
2012-9-16,54,51,45,54,50,45,100,97,74,30.29,30.15,17,5,29,0.00
2012-9-17,73,57,47,58,48,26,100,78,17,30.16,30.11,11,2,13,0.00
2012-9-18,55,51,47,55,51,47,100,99,93,30.26,30.15,16,5,21,0.00
2012-9-19,58,55,53,54,52,49,100,91,72,30.29,30.24,8,2,10,0.00
2012-9-20,56,54,53,56,54,53,100,100,95,30.28,30.23,9,2,12,0.01
2012-9-21,60,55,52,59,54,49,100,95,67,30.29,30.26,7,0,9,0.02
2012-9-22,59,54,49,55,51,-100,100,92,77,30.31,30.24,11,3,15,0.01
2012-9-23,59,55,51,57,52,45,100,90,67,30.26,30.22,13,3,19,0.00
2012-9-24,60,55,49,58,52,45,100,91,61,30.28,30.22,17,6,30,0.00
2012-9-25,59,55,50,55,48,42,100,80,56,30.27,30.21,22,9,32,0.00
2012-9-26,55,51,45,55,50,44,100,97,81,30.22,30.10,20,6,30,0.00
2012-9-27,61,54,48,56,51,48,100,93,70,30.12,30.01,18,3,27,0.00
2012-9-28,60,54,51,57,53,46,100,94,64,30.16,30.04,17,5,28,0.00
2012-9-29,59,54,52,55,49,41,100,84,55,30.37,30.16,23,12,35,0.00
2012-9-30,61,53,45,48,42,38,86,69,46,30.45,30.35,22,8,36,0.00
2012-10-1,65,57,50,58,46,32,100,70,32,30.35,30.24,22,10,37,0.00
2012-10-2,56,52,47,56,44,34,99,76,51,30.31,30.25,23,13,38,0.00
2012-10-3,68,56,45,38,-3,-41,70,28,1,30.27,30.21,26,9,50,0.00
2012-10-4,68,61,56,-8,-24,-40,5,3,1,30.27,30.21,18,9,28,0.00
2012-10-5,62,48,43,47,38,-41,98,80,1,30.30,30.25,12,2,32,0.00
2012-10-6,68,53,45,44,18,-40,90,44,1,30.27,30.11,17,3,26,0.00
2012-10-7,65,54,45,45,23,-45,92,45,1,30.13,30.07,13,1,17,0.00
2012-10-8,56,50,44,49,46,43,100,85,62,30.19,30.11,15,5,18,0.00
2012-10-9,59,53,47,48,46,41,97,78,54,30.23,30.14,13,4,21,0.00
2012-10-10,55,50,45,53,47,44,100,93,69,30.17,30.06,14,4,23,0.00
2012-10-11,56,49,44,54,46,44,100,92,69,30.08,29.95,7,1,9,0.00
2012-10-12,53,51,49,53,51,49,100,100,95,30.20,30.00,12,6,31,1.96
2012-10-13,58,55,53,58,55,53,100,100,100,30.36,30.21,15,6,27,1.01
2012-10-14,59,57,55,59,57,55,100,100,100,30.30,30.09,24,11,45,1.50
2012-10-15,60,56,54,60,56,54,100,100,100,30.12,29.87,27,13,50,2.25
2012-10-16,58,54,48,58,54,47,100,100,97,30.44,29.91,19,5,27,0.84
2012-10-17,58,51,46,53,47,41,100,88,56,30.45,30.28,18,6,24,0.03
2012-10-18,64,56,48,57,39,19,98,56,18,30.28,30.03,15,6,22,0.02
2012-10-19,56,54,51,56,53,45,100,97,69,30.10,29.98,16,8,31,0.77
2012-10-20,54,49,45,52,48,44,100,98,73,30.13,30.02,21,7,33,0.52
2012-10-21,52,46,43,52,46,43,100,99,89,30.04,29.80,16,5,17,0.63
2012-10-22,50,46,43,50,46,43,100,100,93,29.80,29.65,21,8,35,0.57
2012-10-23,47,44,40,47,44,40,100,100,100,29.96,29.79,15,8,28,1.27
2012-10-24,50,45,42,50,45,42,100,100,100,30.27,29.91,17,7,27,1.00
2012-10-25,54,47,41,54,46,41,100,96,78,30.47,30.27,12,6,16,0.03
2012-10-26,54,52,48,54,50,43,100,95,73,30.37,30.24,17,9,33,0.01
2012-10-27,56,54,51,56,54,51,100,100,100,30.25,30.04,23,10,43,1.73
2012-10-28,58,56,55,58,56,55,100,100,100,30.13,29.99,20,8,38,1.46
2012-10-29,58,56,55,58,56,55,100,100,100,30.21,29.99,25,10,46,0.82
2012-10-30,59,58,56,59,46,-100,100,93,100,30.11,29.90,18,11,45,1.33
2012-10-31,56,55,52,56,55,52,100,100,100,29.90,29.77,20,9,42,1.88
2012-11-1,56,54,52,56,54,52,100,100,100,30.15,29.79,23,12,43,1.04
2012-11-2,56,53,51,56,53,51,100,100,100,30.14,30.06,13,7,23,0.33
2012-11-3,57,56,53,57,56,53,100,100,100,30.30,30.08,14,7,28,0.30
2012-11-4,61,58,57,61,58,57,100,100,100,30.49,30.29,14,6,23,0.19
2012-11-5,59,56,54,59,56,54,100,100,100,30.51,30.24,12,6,16,0.07
2012-11-6,58,54,50,58,54,50,100,100,100,30.27,30.17,16,3,33,0.12
2012-11-7,55,49,43,55,49,43,100,100,92,30.31,30.03,12,5,17,0.04
2012-11-8,48,44,39,48,44,39,100,100,100,30.03,29.87,9,3,15,0.31
2012-11-9,48,42,38,48,42,38,100,100,100,30.01,29.95,13,4,22,0.08
2012-11-10,48,40,34,48,40,34,100,100,100,30.27,30.01,10,5,14,0.15
2012-11-11,49,46,41,48,46,41,100,100,100,30.28,30.20,13,8,34,0.45
2012-11-12,55,51,49,55,51,49,100,100,100,30.35,30.18,18,5,38,0.67
2012-11-13,55,51,48,55,51,48,100,100,100,30.35,30.26,8,3,10,0.06
2012-11-14,54,49,45,54,48,-100,100,99,100,30.39,30.27,13,4,17,0.04
2012-11-15,53,47,42,53,47,42,100,100,100,30.27,30.02,8,2,12,0.00
2012-11-16,56,50,44,56,50,44,100,100,100,30.02,29.79,16,7,34,0.30
2012-11-17,55,48,43,55,48,43,100,100,100,29.87,29.65,26,9,42,0.94
2012-11-18,53,48,45,53,48,45,100,100,100,29.89,29.64,30,13,69,1.31
2012-11-19,56,54,49,56,54,49,100,100,100,29.82,29.57,42,22,85,1.84
2012-11-20,54,50,46,54,50,45,100,100,100,29.82,29.65,28,10,51,0.42
2012-11-21,51,47,42,50,46,42,100,95,74,30.38,29.70,30,15,51,0.35
2012-11-22,54,47,41,49,44,37,100,91,65,30.40,30.30,13,7,16,0.02
2012-11-23,54,52,49,53,50,37,100,93,60,30.32,30.20,16,9,35,2.19
2012-11-24,52,49,43,52,49,43,100,100,100,30.36,30.28,10,4,14,0.75
2012-11-25,49,43,40,49,43,39,100,99,83,30.36,30.14,11,6,19,0.00
2012-11-26,53,47,41,52,42,34,100,83,66,30.15,30.06,14,6,20,0.00
2012-11-27,51,48,44,51,46,39,100,95,74,30.13,29.91,20,8,24,0.00
2012-11-28,58,52,46,55,46,36,100,81,58,29.91,29.62,18,12,39,0.04
2012-11-29,59,52,50,54,49,38,100,91,45,29.71,29.52,18,11,35,0.54
2012-11-30,57,54,48,57,54,48,100,100,100,29.59,29.48,31,17,67,0.67
2012-12-1,54,51,47,54,51,47,100,100,97,29.81,29.38,28,12,50,0.73
2012-12-2,52,50,46,52,50,46,100,99,91,30.03,29.36,26,16,45,0.82
2012-12-3,52,50,47,52,50,47,100,100,100,30.12,29.64,22,13,44,0.72
2012-12-4,53,51,48,53,51,48,100,100,100,30.10,29.64,36,15,71,2.05
2012-12-5,52,46,41,51,46,41,100,98,85,30.34,30.10,18,5,24,0.18
2012-12-6,49,44,41,49,43,-100,100,98,100,30.34,30.28,17,8,28,0.23
2012-12-7,51,48,43,51,48,43,100,99,93,30.34,30.25,21,12,32,0.09
2012-12-8,48,44,42,48,44,42,100,100,100,30.45,30.32,7,3,15,0.12
2012-12-9,50,46,43,49,46,43,100,100,100,30.48,30.42,10,4,20,0.14
2012-12-10,50,48,43,50,48,43,100,100,100,30.54,30.23,12,3,16,0.09
2012-12-11,47,45,42,47,45,42,100,100,100,30.23,29.73,20,10,36,0.55
2012-12-12,45,43,38,45,43,38,100,100,100,30.09,29.82,16,6,27,0.46
2012-12-13,47,40,36,47,40,36,100,100,100,30.11,29.91,10,5,12,0.04
2012-12-14,49,43,39,48,42,39,100,98,85,30.04,29.90,18,7,29,0.29
2012-12-15,46,43,39,46,42,39,100,99,90,29.99,29.66,24,13,40,0.77
2012-12-16,52,47,42,52,46,42,100,99,89,29.91,29.26,44,20,81,1.56
2012-12-17,49,43,37,49,43,35,100,97,74,30.07,29.37,43,24,81,0.49
2012-12-18,44,40,36,42,39,36,100,99,89,30.11,30.04,25,9,40,0.20
2012-12-19,47,43,38,47,43,38,100,100,100,30.06,29.60,26,14,66,2.07
2012-12-20,45,39,35,45,39,35,100,100,100,29.84,29.62,22,12,51,4.07
2012-12-21,46,43,40,46,43,40,100,100,100,29.80,29.65,18,10,29,0.23
2012-12-22,47,42,39,47,42,39,100,100,100,29.80,29.54,34,11,47,1.37
2012-12-23,45,42,40,45,42,40,100,100,100,29.99,29.70,18,8,43,0.52
2012-12-24,46,44,39,46,44,39,100,100,98,30.26,29.99,18,8,27,0.02
2012-12-25,50,45,40,50,45,40,100,100,100,30.06,29.67,23,9,36,0.46
2012-12-26,47,45,43,47,45,43,100,100,100,30.14,29.76,24,10,37,0.43
2012-12-27,46,42,38,46,42,38,100,100,100,30.25,30.14,10,5,20,0.12
2012-12-28,44,42,41,44,42,41,100,100,100,30.21,30.15,12,8,16,0.01
2012-12-29,45,40,37,45,40,37,100,100,100,30.26,30.20,12,6,16,0.01
2012-12-30,46,40,37,46,40,37,100,100,100,30.34,30.24,17,9,21,0.00
2012-12-31,42,38,35,42,38,35,100,100,97,30.41,30.24,19,12,25,0.00
2013-1-1,44,39,35,37,31,18,100,77,39,30.43,30.27,22,14,31,0.00